Location: Brachbach
(49.1847°N, 9.7240°E)
Time: 01:15:59
(UTC+00:00)

ARIANE 6 FM1 Upper Stage - Pass Details

Date: 25 January 2026
Orbit: 522 x 609 km, 62.0° (Epoch: 13 February)

Event Time Altitude Azimuth Distance (km) Brightness Sun altitude
Rises 19:12:14 0° 259° (WSW) 2,692 7.2 -30.2°
Reaches altitude 10° 19:14:43 10° 272° (W) 1,790 6.1 -30.6°
Enters shadow 19:16:53 22° 300° (WNW) 1,186 4.9 -30.9°
